period_start,C,m1,H,J0,J1,J2,J3,J4,J5,JA,JB,JC,JD,JJ,JK,JN,#
2014-05-22 00:04:28,0.08,0.18,0.00,29.49,33.46,35.66,9.35,40.05,1010.27,2013.29,3397.27,3227.17,3510.02,500.35,483.37,2.03,0000 0000 0000 0000 000000
2014-05-22 00:09:29,0.14,0.18,0.00,29.55,33.49,35.69,9.29,39.92,1010.27,2013.03,3394.31,3225.13,3507.67,499.98,482.83,2.07,0000 0000 0000 0000 000000
2014-05-22 00:14:31,0.15,0.19,0.00,29.59,33.52,35.72,9.28,39.97,1010.27,2013.01,3391.26,3223.10,3505.32,499.83,482.61,2.11,0000 0000 0000 0000 000000
2014-05-22 00:19:32,0.14,0.20,0.00,29.62,33.55,35.75,9.29,40.24,1010.27,2013.00,3388.66,3221.30,3503.26,499.72,482.59,2.15,0000 0000 0000 0000 000000
2014-05-22 00:24:33,0.18,0.20,0.00,29.67,33.59,35.79,9.28,40.26,1010.27,2013.00,3385.45,3219.04,3500.63,499.86,482.59,2.19,0000 0000 0000 0000 000000
2014-05-22 00:29:34,0.14,0.21,0.00,29.72,33.62,35.82,9.27,40.11,1010.27,2013.00,3382.38,3217.07,3498.44,500.23,482.90,2.23,0000 0000 0000 0000 000000
2014-05-22 00:34:36,0.11,0.21,0.00,29.76,33.66,35.85,9.30,40.13,1010.27,2012.91,3380.14,3215.49,3496.64,500.17,482.71,2.28,0000 0000 0000 0000 000000
2014-05-22 00:39:37,0.07,0.22,0.00,29.80,33.69,35.89,9.28,40.02,1010.27,2012.66,3377.93,3213.96,3494.82,499.88,482.41,2.32,0000 0000 0000 0000 000000
2014-05-22 00:44:38,0.07,0.22,0.00,29.85,33.73,35.92,9.27,40.15,1010.26,2012.30,3375.75,3212.56,3493.19,500.23,482.54,2.36,0000 0000 0000 0000 000000
2014-05-22 00:49:39,0.10,0.23,0.00,29.90,33.76,35.95,9.24,40.08,1010.25,2012.08,3373.50,3211.01,3491.43,499.84,482.18,2.40,0000 0000 0000 0000 000000
2014-05-22 00:54:40,0.11,0.23,0.00,29.93,33.79,35.99,9.28,40.04,1010.19,2012.02,3371.38,3209.53,3489.70,499.77,482.10,2.44,0000 0000 0000 0000 000000
2014-05-22 00:59:42,0.12,0.24,0.00,29.96,33.83,36.03,9.32,40.10,1010.20,2012.00,3368.97,3207.92,3487.89,500.63,482.84,2.49,0000 0000 0000 0000 000000
2014-05-22 01:04:43,0.14,0.24,0.00,30.02,33.86,36.06,9.34,39.98,1010.11,2011.99,3366.41,3206.19,3485.84,500.15,482.19,2.53,0000 0000 0000 0000 000000
2014-05-22 01:09:44,0.13,0.25,0.00,30.09,33.90,36.10,9.27,40.07,1009.99,2011.93,3363.78,3204.31,3483.71,500.11,481.95,2.57,0000 0000 0000 0000 000000
2014-05-22 01:14:45,0.12,0.25,0.00,30.13,33.94,36.14,9.25,40.16,1010.05,2011.60,3360.73,3202.16,3481.10,500.11,481.92,2.61,0000 0000 0000 0000 000000
2014-05-22 01:19:46,0.16,0.26,0.00,30.18,33.98,36.18,9.30,40.08,1010.15,2011.07,3357.07,3199.63,3478.08,500.22,482.08,2.65,0000 0000 0000 0000 000000
2014-05-22 01:24:48,0.21,0.27,0.00,30.22,34.01,36.22,9.25,40.08,1010.15,2011.01,3353.00,3196.98,3474.90,500.05,481.72,2.70,0000 0000 0000 0000 000000
2014-05-22 01:29:49,0.23,0.28,0.00,30.29,34.06,36.25,9.26,39.96,1010.08,2011.00,3348.75,3194.09,3471.60,499.72,481.49,2.74,0000 0000 0000 0000 000000
2014-05-22 01:34:50,0.18,0.29,0.00,30.34,34.09,36.30,9.29,39.75,1010.08,2010.93,3344.91,3191.48,3468.61,500.08,481.65,2.78,0000 0000 0000 0000 000000
2014-05-22 01:39:51,0.10,0.29,0.00,30.38,34.14,36.34,9.28,40.03,1010.00,2010.74,3342.35,3189.70,3466.67,500.06,481.57,2.82,0000 0000 0000 0000 000000
2014-05-22 01:44:52,0.04,0.29,0.00,30.41,34.18,36.38,9.29,40.11,1010.01,2010.20,3340.29,3188.27,3464.96,500.04,481.44,2.86,0000 0000 0000 0000 000000
2014-05-22 01:49:54,0.09,0.30,0.00,30.47,34.21,36.42,9.26,39.93,1009.99,2010.01,3338.36,3186.87,3463.51,500.07,481.37,2.90,0000 0000 0000 0000 000000
2014-05-22 01:54:54,0.10,0.30,0.00,30.55,34.26,36.46,9.20,39.92,1009.93,2010.00,3336.46,3185.58,3461.97,499.70,480.88,2.95,0000 0000 0000 0000 000000
2014-05-22 01:59:56,0.10,0.31,0.00,30.60,34.30,36.50,9.23,40.05,1009.93,2009.98,3334.39,3184.18,3460.41,500.06,481.04,2.99,0000 0000 0000 0000 000000
2014-05-22 02:04:57,0.11,0.31,0.00,30.65,34.34,36.54,9.23,39.86,1010.00,2009.91,3332.28,3182.76,3458.79,499.80,480.87,3.03,0000 0000 0000 0000 000000
2014-05-22 02:09:58,0.02,0.31,0.00,30.70,34.38,36.58,9.28,40.02,1010.08,2009.46,3330.57,3181.56,3457.40,500.00,480.90,3.07,0000 0000 0000 0000 000000
2014-05-22 02:14:59,0.05,0.31,0.00,30.74,34.42,36.63,9.25,39.89,1009.92,2009.07,3328.92,3180.39,3456.13,500.49,481.24,3.11,0000 0000 0000 0000 000000
2014-05-22 02:20:01,0.08,0.32,0.00,30.79,34.46,36.67,9.24,40.01,1009.81,2009.00,3327.15,3179.21,3454.81,500.28,481.02,3.16,0000 0000 0000 0000 000000
2014-05-22 02:25:02,0.11,0.32,0.00,30.83,34.50,36.71,9.25,40.04,1009.80,2009.00,3325.29,3177.83,3453.36,499.73,480.24,3.20,0000 0000 0000 0000 000000
2014-05-22 02:30:03,0.10,0.33,0.00,30.90,34.54,36.75,9.25,39.88,1009.79,2008.97,3323.29,3176.47,3451.79,500.02,480.65,3.24,0000 0000 0000 0000 000000
2014-05-22 02:35:04,0.07,0.33,0.00,30.97,34.58,36.79,9.22,40.05,1009.80,2008.82,3321.52,3175.29,3450.40,500.19,480.62,3.28,0000 0000 0000 0000 000000
2014-05-22 02:40:05,0.04,0.33,0.00,31.02,34.61,36.84,9.23,40.00,1009.79,2008.32,3319.67,3173.92,3448.87,500.16,480.60,3.32,0000 0000 0000 0000 000000
2014-05-22 02:45:06,0.10,0.33,0.00,31.06,34.66,36.88,9.22,39.80,1009.79,2008.02,3317.37,3172.35,3447.06,499.51,479.96,3.36,0000 0000 0000 0000 000000
2014-05-22 02:50:07,0.14,0.34,0.00,31.11,34.70,36.93,9.25,39.70,1009.79,2008.00,3314.83,3170.61,3445.08,500.06,480.31,3.41,0000 0000 0000 0000 000000
2014-05-22 02:55:08,0.11,0.35,0.00,31.16,34.75,36.97,9.21,39.98,1009.79,2007.97,3312.58,3169.01,3443.34,499.83,479.90,3.45,0000 0000 0000 0000 000000
2014-05-22 03:00:10,0.09,0.35,0.00,31.20,34.79,37.02,9.20,39.71,1009.78,2007.75,3310.30,3167.45,3441.56,500.32,480.38,3.49,0000 0000 0000 0000 000000
2014-05-22 03:05:11,0.09,0.35,0.00,31.25,34.84,37.06,9.22,39.68,1009.78,2007.45,3308.01,3165.86,3439.88,500.22,480.18,3.53,0000 0000 0000 0000 000000
2014-05-22 03:10:12,0.09,0.36,0.00,31.30,34.89,37.12,9.20,39.62,1009.78,2007.08,3305.56,3164.22,3437.94,500.13,480.01,3.57,0000 0000 0000 0000 000000
2014-05-22 03:15:13,0.12,0.36,0.00,31.35,34.93,37.16,9.15,39.62,1009.78,2007.00,3303.40,3162.65,3436.14,499.90,479.82,3.62,0000 0000 0000 0000 000000
2014-05-22 03:20:15,0.10,0.37,0.00,31.39,34.98,37.20,9.22,39.62,1009.78,2006.96,3301.20,3161.12,3434.40,500.06,479.82,3.66,0000 0000 0000 0000 000000
2014-05-22 03:25:16,0.08,0.37,0.00,31.44,35.02,37.24,9.18,39.64,1009.78,2006.71,3298.87,3159.56,3432.63,499.79,479.50,3.70,0000 0000 0000 0000 000000
2014-05-22 03:30:17,0.08,0.38,0.00,31.49,35.07,37.29,9.21,39.71,1009.78,2006.28,3296.62,3157.96,3430.87,499.91,479.61,3.74,0000 0000 0000 0000 000000
2014-05-22 03:35:18,0.09,0.38,0.00,31.54,35.12,37.34,9.24,39.61,1009.77,2006.01,3294.50,3156.56,3429.31,500.18,479.49,3.78,0000 0000 0000 0000 000000
2014-05-22 03:40:20,0.10,0.38,0.00,31.59,35.16,37.38,9.22,39.56,1009.74,2006.00,3292.49,3155.19,3427.68,499.91,479.35,3.82,0000 0000 0000 0000 000000
2014-05-22 03:45:21,0.11,0.39,0.00,31.64,35.21,37.43,9.20,39.63,1009.70,2005.92,3290.34,3153.66,3425.95,499.91,479.22,3.87,0000 0000 0000 0000 000000
2014-05-22 03:50:23,0.07,0.39,0.00,31.69,35.26,37.48,9.22,39.71,1009.71,2005.65,3288.21,3152.18,3424.34,500.55,479.53,3.91,0000 0000 0000 0000 000000
2014-05-22 03:55:24,0.06,0.39,0.00,31.74,35.31,37.53,9.28,39.92,1009.73,2005.09,3286.02,3150.60,3422.54,500.55,479.71,3.95,0000 0000 0000 0000 000000
2014-05-22 04:00:24,0.12,0.40,0.00,31.79,35.35,37.58,9.23,40.22,1009.76,2005.01,3283.71,3149.02,3420.74,499.82,478.95,3.99,0000 0000 0000 0000 000000
2014-05-22 04:05:25,0.14,0.40,0.00,31.85,35.40,37.62,9.25,39.99,1009.76,2004.98,3281.08,3147.26,3418.74,500.32,479.34,4.03,0000 0000 0000 0000 000000
2014-05-22 04:10:27,0.10,0.41,0.00,31.89,35.45,37.67,9.21,39.86,1009.53,2004.85,3278.70,3145.57,3416.86,500.11,478.91,4.08,0000 0000 0000 0000 000000
2014-05-22 04:15:28,0.05,0.41,0.00,31.94,35.50,37.72,9.13,39.48,1009.33,2004.24,3276.39,3143.93,3415.01,499.58,478.25,4.12,0000 0000 0000 0000 000000
2014-05-22 04:20:29,0.18,0.42,0.00,31.99,35.55,37.77,9.24,39.61,1009.30,2004.01,3273.29,3141.70,3412.42,500.09,478.81,4.16,0000 0000 0000 0000 000000
2014-05-22 04:25:30,0.20,0.43,0.00,32.05,35.60,37.82,9.27,39.61,1009.29,2004.00,3269.45,3139.14,3409.61,500.51,478.83,4.20,0000 0000 0000 0000 000000
2014-05-22 04:30:32,0.16,0.43,0.00,32.10,35.65,37.86,9.20,39.64,1009.29,2003.93,3266.32,3136.93,3407.02,500.10,478.56,4.24,0000 0000 0000 0000 000000
2014-05-22 04:35:33,0.11,0.44,0.00,32.15,35.70,37.91,9.21,39.56,1009.29,2003.47,3263.22,3134.73,3404.46,499.84,478.22,4.28,0000 0000 0000 0000 000000
2014-05-22 04:40:34,0.19,0.44,0.00,32.20,35.75,37.96,9.15,39.59,1009.29,2003.06,3259.34,3132.10,3401.34,500.11,478.39,4.33,0000 0000 0000 0000 000000
2014-05-22 04:45:36,0.23,0.46,0.00,32.25,35.80,38.01,9.24,39.88,1009.29,2003.00,3254.97,3129.07,3397.89,500.27,478.39,4.37,0000 0000 0000 0000 000000
2014-05-22 04:50:37,0.17,0.46,0.00,32.30,35.85,38.05,9.20,39.54,1009.29,2002.98,3251.68,3126.76,3395.31,500.50,478.40,4.41,0000 0000 0000 0000 000000
2014-05-22 04:55:39,0.13,0.47,0.00,32.36,35.90,38.10,9.12,39.74,1009.29,2002.57,3248.31,3124.34,3392.57,499.59,477.56,4.45,0000 0000 0000 0000 000000
2014-05-22 05:00:40,0.24,0.48,0.00,32.41,35.94,38.15,9.12,39.57,1009.29,2002.04,3243.71,3121.06,3389.06,499.81,477.76,4.49,0000 0000 0000 0000 000000
2014-05-22 05:05:41,0.31,0.49,0.00,32.46,35.99,38.19,9.12,39.42,1009.29,2002.00,3238.31,3117.16,3384.75,499.80,477.62,4.54,0000 0000 0000 0000 000000
2014-05-22 05:10:42,0.40,0.51,0.00,32.51,36.04,38.24,9.14,39.37,1009.29,2001.96,3231.72,3112.36,3379.34,499.88,477.42,4.58,0000 0000 0000 0000 000000
2014-05-22 05:15:43,0.38,0.52,0.00,32.56,36.08,38.29,9.25,39.51,1009.29,2001.47,3224.28,3106.83,3373.03,500.47,478.32,4.62,0000 0000 0000 0000 000000
2014-05-22 05:20:44,0.44,0.54,0.00,32.61,36.12,38.34,9.19,39.34,1009.29,2001.06,3216.18,3101.03,3366.50,500.33,477.96,4.66,0000 0000 0000 0000 000000
2014-05-22 05:25:46,0.43,0.56,0.00,32.65,36.17,38.38,9.18,39.33,1009.28,2001.00,3208.78,3095.64,3360.33,499.91,477.46,4.70,0000 0000 0000 0000 000000
2014-05-22 05:30:47,0.48,0.58,0.00,32.70,36.21,38.42,9.14,39.62,1009.18,2000.94,3200.65,3089.75,3353.47,499.66,477.17,4.75,0000 0000 0000 0000 000000
2014-05-22 05:35:48,0.42,0.60,0.00,32.74,36.26,38.46,9.12,39.55,1009.22,2000.63,3192.07,3083.73,3346.61,499.90,477.40,4.79,0000 0000 0000 0000 000000
2014-05-22 05:40:49,0.22,0.61,0.00,32.79,36.30,38.52,9.15,39.44,1009.19,2000.09,3186.81,3080.02,3342.34,500.12,477.40,4.83,0000 0000 0000 0000 000000
2014-05-22 05:45:51,0.27,0.62,0.00,32.83,36.35,38.55,9.18,39.39,1009.19,2000.00,3182.12,3076.67,3338.58,500.00,477.22,4.87,0000 0000 0000 0000 000000
2014-05-22 05:50:52,0.21,0.63,0.00,32.88,36.40,38.60,9.12,39.44,1009.23,1999.99,3178.21,3073.97,3335.55,499.38,476.76,4.91,0000 0000 0000 0000 000000
2014-05-22 05:55:53,0.18,0.64,0.00,32.92,36.44,38.65,9.12,39.36,1009.21,1999.74,3174.23,3071.27,3332.42,499.84,476.88,4.95,0000 0000 0000 0000 000000
2014-05-22 06:00:54,0.18,0.64,0.00,32.95,36.49,38.70,9.19,39.94,1009.06,1999.16,3169.80,3068.48,3329.19,499.90,476.97,5.00,0000 0000 0000 0000 000000
2014-05-22 06:05:55,0.25,0.65,0.00,32.97,36.53,38.74,9.16,39.83,1008.90,1999.00,3165.09,3065.40,3325.84,499.87,476.76,5.04,0000 0000 0000 0000 000000
2014-05-22 06:10:56,0.25,0.67,0.00,33.00,36.57,38.79,9.19,39.77,1008.84,1998.95,3160.49,3062.40,3322.48,500.02,476.94,5.08,0000 0000 0000 0000 000000
2014-05-22 06:15:57,0.20,0.67,0.00,33.04,36.62,38.83,9.15,39.58,1008.83,1998.56,3155.77,3059.29,3319.05,499.84,476.68,5.12,0000 0000 0000 0000 000000
2014-05-22 06:20:59,0.22,0.68,0.00,33.09,36.66,38.86,9.23,39.91,1008.81,1998.10,3150.91,3056.15,3315.56,500.23,476.93,5.16,0000 0000 0000 0000 000000
2014-05-22 06:26:00,0.26,0.69,0.00,33.14,36.70,38.90,9.20,39.48,1008.82,1998.00,3146.08,3052.98,3311.99,500.22,476.81,5.21,0000 0000 0000 0000 000000
2014-05-22 06:31:01,0.28,0.71,0.00,33.17,36.74,38.94,9.15,39.27,1008.81,1997.99,3141.16,3049.74,3308.39,500.38,476.85,5.25,0000 0000 0000 0000 000000
2014-05-22 06:36:02,0.26,0.72,0.00,33.19,36.78,38.98,9.19,39.40,1008.81,1997.90,3136.26,3046.47,3304.74,500.16,476.67,5.29,0000 0000 0000 0000 000000
2014-05-22 06:41:04,0.25,0.73,0.00,33.23,36.82,39.03,9.16,39.34,1008.81,1997.78,3131.54,3043.31,3301.22,500.30,476.80,5.33,0000 0000 0000 0000 000000
2014-05-22 06:46:05,0.21,0.74,0.00,33.27,36.86,39.07,9.18,39.29,1008.81,1997.24,3126.57,3040.04,3297.58,499.83,476.21,5.37,0000 0000 0000 0000 000000
2014-05-22 06:51:06,0.28,0.75,0.00,33.32,36.90,39.11,9.11,39.20,1008.80,1997.01,3121.49,3036.55,3293.73,500.23,476.44,5.41,0000 0000 0000 0000 000000
2014-05-22 06:56:07,0.30,0.76,0.00,33.36,36.94,39.14,9.07,39.31,1008.80,1997.00,3116.27,3033.01,3289.75,500.03,476.42,5.46,0000 0000 0000 0000 000000
2014-05-22 07:01:08,0.29,0.77,0.00,33.38,36.99,39.18,9.17,39.98,1008.80,1996.92,3110.96,3029.41,3285.71,500.02,476.41,5.50,0000 0000 0000 0000 000000
2014-05-22 07:06:10,0.25,0.78,0.00,33.41,37.03,39.22,9.14,39.67,1008.80,1996.63,3105.85,3025.92,3281.77,500.18,476.41,5.54,0000 0000 0000 0000 000000
2014-05-22 07:11:10,0.22,0.79,0.00,33.45,37.07,39.26,9.12,39.33,1008.80,1996.14,3100.98,3022.68,3278.13,500.01,476.21,5.58,0000 0000 0000 0000 000000
2014-05-22 07:16:11,0.28,0.80,0.00,33.50,37.10,39.30,9.15,39.77,1008.80,1996.00,3096.02,3019.33,3274.38,500.16,476.19,5.62,0000 0000 0000 0000 000000
2014-05-22 07:21:12,0.28,0.82,0.00,33.54,37.14,39.33,9.12,39.38,1008.80,1996.00,3091.02,3015.97,3270.65,499.65,475.62,5.67,0000 0000 0000 0000 000000
2014-05-22 07:26:13,0.27,0.83,0.00,33.56,37.18,39.37,9.21,39.59,1008.80,1995.94,3086.11,3012.69,3266.96,500.18,476.03,5.71,0000 0000 0000 0000 000000
2014-05-22 07:31:13,0.25,0.84,0.00,33.60,37.22,39.40,9.15,39.63,1008.80,1995.57,3080.76,3009.07,3263.08,500.24,476.03,5.75,0000 0000 0000 0000 000000
2014-05-22 07:36:15,0.26,0.85,0.00,33.64,37.26,39.45,9.15,39.34,1008.80,1995.09,3075.46,3005.58,3259.00,499.84,475.68,5.79,0000 0000 0000 0000 000000
2014-05-22 07:41:16,0.27,0.86,0.00,33.69,37.29,39.50,9.15,39.37,1008.80,1995.00,3070.70,3002.33,3255.37,500.14,475.87,5.83,0000 0000 0000 0000 000000
2014-05-22 07:46:17,0.28,0.87,0.00,33.72,37.33,39.51,9.13,39.39,1008.80,1995.00,3065.91,2999.11,3251.83,499.84,475.53,5.87,0000 0000 0000 0000 000000
2014-05-22 07:51:18,0.25,0.88,0.00,33.74,37.37,39.55,9.07,39.23,1008.80,1994.97,3061.31,2996.04,3248.39,499.55,475.36,5.92,0000 0000 0000 0000 000000
2014-05-22 07:56:19,0.24,0.89,0.00,33.77,37.41,39.59,9.10,39.62,1008.80,1994.81,3056.86,2993.05,3245.01,500.61,476.25,5.96,0000 0000 0000 0000 000000
2014-05-22 08:01:20,0.18,0.90,0.00,33.81,37.44,39.62,9.17,39.63,1008.80,1994.32,3052.50,2990.10,3241.78,500.19,475.68,6.00,0000 0000 0000 0000 000000
2014-05-22 08:06:22,0.23,0.91,0.00,33.86,37.48,39.66,9.12,39.33,1008.80,1994.02,3048.21,2987.20,3238.53,499.99,475.43,6.04,0000 0000 0000 0000 000000
2014-05-22 08:11:23,0.25,0.92,0.00,33.90,37.52,39.69,9.16,39.38,1008.80,1994.00,3043.78,2984.29,3235.24,499.84,475.29,6.08,0000 0000 0000 0000 000000
2014-05-22 08:16:24,0.26,0.93,0.00,33.90,37.55,39.73,9.16,39.27,1008.80,1993.97,3039.04,2981.24,3231.90,500.18,475.61,6.13,0000 0000 0000 0000 000000
2014-05-22 08:21:25,0.23,0.94,0.00,33.92,37.59,39.77,9.10,39.21,1008.80,1993.59,3034.02,2978.06,3228.34,499.80,475.17,6.17,0000 0000 0000 0000 000000
2014-05-22 08:26:27,0.22,0.95,0.00,33.96,37.62,39.80,9.12,39.25,1008.80,1993.16,3029.35,2975.09,3225.01,500.23,475.43,6.21,0000 0000 0000 0000 000000
2014-05-22 08:31:28,0.25,0.96,0.00,33.99,37.66,39.83,9.13,39.34,1008.80,1993.03,3024.68,2972.02,3221.66,500.07,475.19,6.25,0000 0000 0000 0000 000000
2014-05-22 08:36:29,0.29,0.98,0.00,34.01,37.69,39.87,9.15,39.48,1008.80,1993.00,3019.85,2968.85,3218.12,500.07,475.38,6.29,0000 0000 0000 0000 000000
2014-05-22 08:41:30,0.32,0.99,0.00,34.02,37.73,39.90,9.09,39.32,1008.80,1993.00,3014.59,2965.32,3214.25,499.66,474.91,6.33,0000 0000 0000 0000 000000
2014-05-22 08:46:32,0.33,1.00,0.00,34.04,37.76,39.93,9.20,39.51,1008.80,1992.94,3009.00,2961.49,3210.04,500.14,475.31,6.38,0000 0000 0000 0000 000000
2014-05-22 08:51:33,0.34,1.02,0.00,34.06,37.78,39.96,9.20,39.90,1008.80,1992.74,3003.01,2957.20,3205.38,500.08,475.22,6.42,0000 0000 0000 0000 000000
2014-05-22 08:56:34,0.30,1.03,0.00,34.09,37.82,39.99,9.16,39.89,1008.80,1992.22,2996.91,2952.95,3200.69,500.30,475.25,6.46,0000 0000 0000 0000 000000
2014-05-22 09:01:35,0.33,1.05,0.00,34.10,37.84,40.02,9.09,39.80,1008.80,1992.06,2991.14,2948.98,3196.38,499.85,474.91,6.50,0000 0000 0000 0000 000000
2014-05-22 09:06:36,0.38,1.06,0.00,34.11,37.88,40.04,9.20,39.85,1008.80,1992.00,2984.98,2944.68,3191.64,500.16,475.28,6.54,0000 0000 0000 0000 000000
2014-05-22 09:11:38,0.30,1.07,0.00,34.14,37.91,40.08,9.13,39.77,1008.80,1992.00,2979.67,2941.00,3187.49,499.89,474.80,6.59,0000 0000 0000 0000 000000
2014-05-22 09:16:39,0.31,1.09,0.00,34.17,37.94,40.10,9.11,39.70,1008.80,1991.95,2974.41,2937.39,3183.48,499.86,474.83,6.63,0000 0000 0000 0000 000000
2014-05-22 09:21:41,0.27,1.10,0.00,34.18,37.96,40.12,9.10,39.62,1008.80,1991.63,2969.11,2933.74,3179.45,500.05,475.07,6.67,0000 0000 0000 0000 000000
2014-05-22 09:26:42,0.27,1.11,0.00,34.19,37.99,40.15,9.14,39.63,1008.80,1991.17,2964.03,2930.23,3175.63,499.99,474.88,6.71,0000 0000 0000 0000 000000
2014-05-22 09:31:43,0.30,1.12,0.00,34.22,38.02,40.18,9.15,39.64,1008.80,1991.02,2958.84,2926.76,3171.75,500.21,475.15,6.75,0000 0000 0000 0000 000000
2014-05-22 09:36:44,0.31,1.14,0.00,34.25,38.05,40.20,9.13,39.77,1008.80,1991.00,2953.75,2923.21,3167.88,499.75,474.61,6.79,0000 0000 0000 0000 000000
2014-05-22 09:41:46,0.32,1.15,0.00,34.25,38.07,40.22,9.20,39.85,1008.80,1991.00,2948.70,2919.77,3163.94,500.48,475.29,6.84,0000 0000 0000 0000 000000
2014-05-22 09:46:47,0.36,1.16,0.00,34.26,38.10,40.25,9.13,39.59,1008.80,1990.96,2942.97,2915.64,3159.43,500.05,474.87,6.88,0000 0000 0000 0000 000000
2014-05-22 09:51:48,0.38,1.18,0.00,34.28,38.12,40.28,9.09,39.47,1008.80,1990.75,2936.57,2910.99,3154.28,500.06,474.84,6.92,0000 0000 0000 0000 000000
2014-05-22 09:56:50,0.36,1.20,0.00,34.30,38.15,40.30,9.10,39.42,1008.80,1990.50,2930.37,2906.52,3149.39,499.86,474.67,6.96,0000 0000 0000 0000 000000
2014-05-22 10:01:51,0.24,1.21,0.00,34.30,38.18,40.32,9.12,39.88,1008.80,1990.08,2925.39,2902.91,3145.32,500.03,474.65,7.00,0000 0000 0000 0000 000000
2014-05-22 10:06:52,0.28,1.22,0.00,34.32,38.20,40.34,9.14,39.77,1008.80,1990.00,2920.74,2899.89,3142.00,500.04,474.83,7.05,0000 0000 0000 0000 000000
2014-05-22 10:11:53,0.29,1.23,0.00,34.34,38.22,40.36,9.16,39.38,1008.81,1990.00,2915.93,2896.74,3138.49,500.43,475.01,7.09,0000 0000 0000 0000 000000
2014-05-22 10:16:54,0.31,1.24,0.00,34.37,38.24,40.39,9.12,39.38,1008.82,1990.00,2910.91,2893.33,3134.90,499.50,474.25,7.13,0000 0000 0000 0000 000000
2014-05-22 10:21:55,0.32,1.26,0.00,34.37,38.26,40.42,9.08,39.33,1008.81,1989.99,2905.81,2889.80,3131.03,499.48,474.28,7.17,0000 0000 0000 0000 000000
2014-05-22 10:26:56,0.30,1.27,0.00,34.38,38.29,40.44,9.06,39.35,1008.81,1989.94,2900.82,2886.29,3127.15,499.65,474.31,7.21,0000 0000 0000 0000 000000
2014-05-22 10:31:57,0.24,1.28,0.00,34.40,38.31,40.47,9.13,39.37,1008.82,1989.60,2896.27,2882.98,3123.44,499.91,474.62,7.26,0000 0000 0000 0000 000000
2014-05-22 10:36:59,0.25,1.29,0.00,34.42,38.33,40.50,9.09,39.42,1008.81,1989.16,2891.57,2879.82,3119.88,500.12,474.70,7.30,0000 0000 0000 0000 000000
2014-05-22 10:42:00,0.25,1.30,0.00,34.43,38.35,40.53,9.08,39.38,1008.81,1989.03,2887.08,2876.80,3116.30,499.60,474.33,7.34,0000 0000 0000 0000 000000
2014-05-22 10:47:02,0.28,1.31,0.00,34.44,38.38,40.55,9.13,39.45,1008.80,1989.00,2882.62,2873.87,3113.10,499.92,474.52,7.38,0000 0000 0000 0000 000000
2014-05-22 10:52:03,0.26,1.33,0.00,34.46,38.40,40.59,9.08,39.23,1008.80,1989.00,2878.48,2870.93,3109.79,499.83,474.22,7.42,0000 0000 0000 0000 000000
2014-05-22 10:57:04,0.24,1.34,0.00,34.49,38.42,40.61,9.08,39.25,1008.80,1988.99,2874.61,2868.32,3106.86,499.93,474.39,7.46,0000 0000 0000 0000 000000
2014-05-22 11:02:05,0.24,1.35,0.00,34.50,38.44,40.64,9.18,39.23,1008.80,1988.97,2870.63,2865.66,3103.83,500.07,474.51,7.51,0000 0000 0000 0000 000000
2014-05-22 11:07:06,0.25,1.36,0.00,34.50,38.46,40.66,9.09,39.43,1008.80,1988.79,2866.35,2862.76,3100.59,499.79,474.43,7.55,0000 0000 0000 0000 000000
2014-05-22 11:12:07,0.24,1.37,0.00,34.52,38.48,40.68,9.11,39.26,1008.80,1988.52,2861.86,2859.72,3097.19,500.05,474.46,7.59,0000 0000 0000 0000 000000
2014-05-22 11:17:08,0.27,1.38,0.00,34.53,38.50,40.69,9.12,39.34,1008.80,1988.30,2857.41,2856.71,3093.78,500.27,474.57,7.63,0000 0000 0000 0000 000000
2014-05-22 11:22:09,0.26,1.39,0.00,34.53,38.51,40.70,9.10,39.38,1008.80,1988.05,2852.77,2853.55,3090.24,500.05,474.46,7.67,0000 0000 0000 0000 000000
2014-05-22 11:27:10,0.27,1.40,0.00,34.51,38.53,40.71,9.13,39.24,1008.79,1988.01,2848.41,2850.59,3086.95,500.04,474.57,7.71,0000 0000 0000 0000 000000
2014-05-22 11:32:11,0.28,1.41,0.00,34.50,38.54,40.72,9.16,39.42,1008.79,1988.00,2843.99,2847.61,3083.63,500.39,474.84,7.76,0000 0000 0000 0000 000000
2014-05-22 11:37:13,0.27,1.42,0.00,34.50,38.55,40.74,9.20,39.34,1008.79,1988.00,2839.64,2844.70,3080.38,500.36,474.52,7.80,0000 0000 0000 0000 000000
2014-05-22 11:42:14,0.27,1.44,0.00,34.47,38.55,40.74,9.13,39.31,1008.76,1988.00,2835.34,2841.80,3077.15,500.42,474.88,7.84,0000 0000 0000 0000 000000
2014-05-22 11:47:15,0.26,1.45,0.00,34.44,38.57,40.75,9.11,39.33,1008.78,1987.98,2831.16,2839.02,3074.05,499.97,474.64,7.88,0000 0000 0000 0000 000000
2014-05-22 11:52:17,0.24,1.46,0.00,34.41,38.58,40.76,9.11,39.25,1008.79,1987.97,2827.21,2836.38,3071.19,500.07,474.65,7.92,0000 0000 0000 0000 000000
2014-05-22 11:57:18,0.24,1.47,0.00,34.37,38.58,40.76,9.18,39.20,1008.77,1987.98,2823.40,2833.91,3068.41,500.14,474.75,7.97,0000 0000 0000 0000 000000
2014-05-22 12:02:19,0.22,1.48,0.00,34.33,38.58,40.76,9.18,39.28,1008.80,1987.94,2819.63,2831.39,3065.58,500.22,474.93,8.01,0000 0000 0000 0000 000000
2014-05-22 12:07:20,0.23,1.49,0.00,34.26,38.58,40.76,9.14,39.23,1008.72,1987.85,2815.92,2828.92,3062.86,500.25,474.93,8.05,0000 0000 0000 0000 000000
2014-05-22 12:12:21,0.31,1.50,0.00,34.21,38.58,40.76,9.22,39.22,1008.61,1987.71,2811.24,2825.63,3059.28,500.17,474.87,8.09,0000 0000 0000 0000 000000
2014-05-22 12:17:23,0.29,1.51,0.00,34.18,38.58,40.75,9.11,39.26,1008.46,1987.58,2806.15,2822.11,3055.41,499.98,474.82,8.13,0000 0000 0000 0000 000000
2014-05-22 12:22:24,0.27,1.52,0.00,34.15,38.57,40.74,9.09,39.40,1008.38,1987.60,2802.00,2819.35,3052.40,500.25,475.00,8.18,0000 0000 0000 0000 000000
2014-05-22 12:27:25,0.24,1.53,0.00,34.11,38.55,40.73,9.14,39.43,1008.39,1987.65,2798.30,2816.98,3049.68,500.23,474.91,8.22,0000 0000 0000 0000 000000
2014-05-22 12:32:26,0.25,1.54,0.00,34.07,38.55,40.72,9.09,39.43,1008.39,1987.72,2794.52,2814.60,3046.96,499.68,474.64,8.26,0000 0000 0000 0000 000000
2014-05-22 12:37:28,0.24,1.56,0.00,34.05,38.54,40.71,9.10,39.35,1008.33,1987.82,2790.67,2812.09,3044.14,499.95,474.74,8.30,0000 0000 0000 0000 000000
2014-05-22 12:42:29,0.24,1.57,0.00,34.02,38.53,40.70,9.21,39.29,1008.33,1987.85,2786.90,2809.63,3041.35,500.52,475.45,8.34,0000 0000 0000 0000 000000
2014-05-22 12:47:30,0.24,1.58,0.00,33.97,38.52,40.69,9.19,39.42,1008.33,1987.90,2783.21,2807.22,3038.66,499.88,474.96,8.38,0000 0000 0000 0000 000000
2014-05-22 12:52:31,0.25,1.59,0.00,33.94,38.50,40.67,9.19,39.46,1008.33,1987.90,2779.37,2804.65,3035.79,500.10,475.09,8.43,0000 0000 0000 0000 000000
2014-05-22 12:57:33,0.25,1.60,0.00,33.92,38.49,40.65,9.15,39.42,1008.33,1987.97,2775.54,2802.11,3032.97,499.73,474.74,8.47,0000 0000 0000 0000 000000
2014-05-22 13:02:34,0.26,1.61,0.00,33.89,38.48,40.63,9.17,39.38,1008.32,1987.98,2771.58,2799.45,3029.97,499.82,475.00,8.51,0000 0000 0000 0000 000000
2014-05-22 13:07:36,0.26,1.62,0.00,33.85,38.45,40.62,9.14,39.34,1008.32,1987.99,2767.58,2796.72,3026.97,499.74,475.04,8.55,0000 0000 0000 0000 000000